| time (UTC) | temp F | wind direction | speed knots | gust knots | rain 1hr in | rain 24hr in | rain mn in | humidity % | barometer mb |
| 20260506170451 | 51 | 315 | 0.0 | 1.7 | 0.00 | 0.00 | 0.00 | 74 | 1015.6 |
| 20260506164450 | 52 | 0 | 0.9 | 3.5 | 0.00 | 0.00 | 0.00 | 77 | 1015.5 |
| 20260506162449 | 53 | 22 | 1.7 | 4.3 | 0.00 | 0.00 | 0.00 | 78 | 1015.5 |
| 20260506160448 | 55 | 315 | 0.0 | 2.6 | 0.00 | 0.00 | 0.00 | 78 | 1015.3 |
| 20260506154447 | 55 | 337 | 0.0 | 5.2 | 0.00 | 0.00 | 0.00 | 78 | 1015.2 |
| 20260506152445 | 57 | 337 | 0.0 | 3.5 | 0.00 | 0.00 | 0.00 | 77 | 1015.2 |
| 20260506150444 | 58 | 337 | 0.0 | 6.1 | 0.00 | 0.00 | 0.00 | 77 | 1015.2 |
| 20260506144443 | 57 | 337 | 3.5 | 8.7 | 0.00 | 0.00 | 0.00 | 78 | 1015.1 |
| 20260506142442 | 55 | 337 | 5.2 | 5.2 | 0.00 | 0.00 | 0.00 | 75 | 1015.1 |
| 20260506140441 | 53 | 0 | 7.0 | 7.0 | 0.00 | 0.00 | 0.00 | 73 | 1015.3 |
| 20260506134440 | 52 | 0 | 0.0 | 3.5 | 0.00 | 0.00 | 0.00 | 70 | 1015.2 |
| 20260506132439 | 53 | 0 | 0.0 | 5.2 | 0.00 | 0.00 | 0.00 | 70 | 1015.3 |
| 20260506130437 | 54 | 22 | 0.0 | 7.8 | 0.00 | 0.00 | 0.00 | 66 | 1015.1 |
| 20260506124436 | 53 | 315 | 0.0 | 6.1 | 0.00 | 0.00 | 0.00 | 68 | 1015.1 |
| 20260506122435 | 52 | 315 | 0.0 | 5.2 | 0.00 | 0.00 | 0.00 | 71 | 1015.0 |
| 20260506120434 | 53 | 337 | 1.7 | 6.1 | 0.00 | 0.00 | 0.00 | 76 | 1014.8 |
| 20260506114433 | 55 | 337 | 4.3 | 7.8 | 0.00 | 0.00 | 0.00 | 75 | 1014.6 |
| 20260506112432 | 54 | 337 | 1.7 | 5.2 | 0.00 | 0.00 | 0.00 | 68 | 1014.6 |
| 20260506110431 | 53 | 337 | 2.6 | 6.1 | 0.00 | 0.00 | 0.00 | 71 | 1014.4 |
| 20260506104430 | 54 | 337 | 2.6 | 4.3 | 0.00 | 0.00 | 0.00 | 69 | 1014.3 |
| 20260506102428 | 55 | 315 | 0.0 | 9.6 | 0.00 | 0.00 | 0.00 | 70 | 1014.1 |
| 20260506100427 | 56 | 337 | 0.0 | 8.7 | 0.00 | 0.00 | 0.00 | 60 | 1013.8 |
| 20260506094426 | 55 | 337 | 1.7 | 7.8 | 0.00 | 0.00 | 0.00 | 43 | 1013.6 |
| 20260506092425 | 54 | 0 | 5.2 | 7.8 | 0.00 | 0.00 | 0.00 | 25 | 1013.5 |
| 20260506090424 | 53 | 337 | 1.7 | 9.6 | 0.00 | 0.00 | 0.00 | 19 | 1013.3 |
| 20260506084423 | 53 | 0 | 3.5 | 7.0 | 0.00 | 0.00 | 0.00 | 14 | 1013.1 |
| 20260506082422 | 52 | 315 | 1.7 | 6.1 | 0.00 | 0.00 | 0.00 | 16 | 1013.1 |
| 20260506080421 | 53 | 337 | 2.6 | 5.2 | 0.00 | 0.00 | 0.00 | 13 | 1012.9 |